Weather History for 76679 - February, 2014

Change the Weather History Date:

Sunday, February 2, 2014

  Actual Average Record
Temperature  
Mean Temperature 62 °F -  
Max Temperature 77 °F 72 °F - ()
Min Temperature 46 °F 43 °F - ()
Degree Days  
Heating Degree Days 4    
Growing Degree Days 12 (Base 50)    
Moisture  
Dew Point 35 °F    
Average Humidity 41    
Maximum Humidity 66    
Minimum Humidity 15    
Precipitation  
Precipitation 0.00 in - - ()
Sea Level Pressure  
Sea Level Pressure 30.15 in    
Wind  
Wind Speed 3 mph ()    
Max Wind Speed 9 mph    
Max Gust Speed -    
Visibility 6.7 miles    
Events      
T = Trace of Precipitation, MM = Missing Value Source: Averaged Metar Reports

Daily Weather History Graph

Daily Weather History Graph

Search for Another Location

Airport or City:

Trip Planner

Search our weather history database for the weather conditions in past years. The results will help you decide how hot, cold, wet, or windy it might be!

Date:

Astronomy

Feb. 02, 2014 Rise Set
Actual Time 7:10 AM CST 6:29 PM CST
Civil Twilight 6:48 AM CST 6:52 PM CST
Nautical Twilight 6:21 AM CST 7:19 PM CST
Astronomical Twilight 5:55 AM CST 7:45 PM CST
Moon 9:10 AM CST (2/2) 9:38 PM CST (2/2)
Length of Visible Light 12h 04m
Length of Day
11h 18m
Waxing Crescent, 11% of the Moon is Illuminated
Feb 2
Waxing Crescent
Feb 6
First Quarter
Feb 14
Full
Feb 22
Last Quarter
Mar 1
New

Hourly Weather History & Observations

Time (CST) Temp. Windchill Dew Point Humidity Pressure Visibility Wind Dir Wind Speed Gust Speed Precip Events Conditions
12:43 AM 59.0 °F - 37.4 °F 45% 30.24 in 10.0 mi Calm Calm - N/A   Clear
1:38 AM 55.4 °F - 35.6 °F 47% 30.25 in 8.0 mi Calm Calm - N/A   Clear
1:45 AM 55.4 °F - 37.4 °F 51% 30.25 in 8.0 mi Calm Calm - N/A   Clear
2:43 AM 53.6 °F - 37.4 °F 54% 29.74 in 8.0 mi ENE 3.5 mph - N/A   Clear
3:43 AM 53.6 °F - 37.4 °F 54% 30.23 in 8.0 mi Calm Calm - N/A   Clear
4:44 AM 50.0 °F - 33.8 °F 54% 30.23 in 8.0 mi ENE 4.6 mph - N/A   Clear
4:50 AM 48.2 °F - 33.8 °F 58% 30.23 in 8.0 mi ENE 5.8 mph - N/A   Clear
5:45 AM 46.4 °F 44.3 °F 33.8 °F 62% 29.81 in 7.0 mi NE 4.6 mph - N/A   Clear
6:20 AM 46.4 °F 45.2 °F 33.8 °F 62% 30.25 in 7.0 mi NE 3.5 mph - N/A   Clear
6:43 AM 46.4 °F 45.2 °F 33.8 °F 62% 30.26 in 7.0 mi East 3.5 mph - N/A   Clear
7:20 AM 46.4 °F 44.3 °F 35.6 °F 66% 30.27 in 7.0 mi East 4.6 mph - N/A   Clear
7:42 AM 46.4 °F 45.2 °F 33.8 °F 62% 30.28 in 7.0 mi East 3.5 mph - N/A   Clear
8:01 AM 50.0 °F - 35.6 °F 58% 30.29 in 7.0 mi East 2.3 mph - N/A   Clear
8:20 AM 50.0 °F - 35.6 °F 58% 30.29 in 6.0 mi ENE 4.6 mph - N/A   Clear
8:42 AM 51.8 °F - 37.4 °F 58% 29.89 in 6.0 mi NE 4.6 mph - N/A   Clear
9:00 AM 55.4 °F - 35.6 °F 47% 30.30 in 6.0 mi East 3.5 mph - N/A   Clear
9:20 AM 57.2 °F - 35.6 °F 44% 30.31 in 6.0 mi East 2.3 mph - N/A   Clear
9:41 AM 60.8 °F - 37.4 °F 42% 30.31 in 6.0 mi Calm Calm - N/A   Clear
9:43 AM 60.8 °F - 37.4 °F 42% 30.31 in 6.0 mi Calm Calm - N/A   Clear
10:29 AM 64.4 °F - 37.4 °F 37% 30.31 in 6.0 mi East 4.6 mph - N/A   Clear
10:42 AM 64.4 °F - 37.4 °F 37% 30.30 in 6.0 mi ENE 2.3 mph - N/A   Clear
11:34 AM 68.0 °F - 35.6 °F 30% 30.28 in 5.0 mi Calm Calm - N/A   Clear
11:52 AM 68.0 °F - 35.6 °F 30% 29.79 in 5.0 mi South 4.6 mph - N/A   Clear
12:39 PM 71.6 °F - 33.8 °F 25% 30.24 in 6.0 mi SE 8.1 mph - N/A   Clear
12:42 PM 71.6 °F - 33.8 °F 25% 30.24 in 6.0 mi SE 4.6 mph - N/A   Clear
1:45 PM 73.4 °F - 33.8 °F 23% 30.20 in 6.0 mi SSE 4.6 mph - N/A   Scattered Clouds
2:46 PM 75.2 °F - 30.2 °F 19% 29.67 in 6.0 mi NNE 6.9 mph - N/A   Scattered Clouds
3:43 PM 77.0 °F - 28.4 °F 17% 30.14 in 6.0 mi NE 2.3 mph - N/A   Scattered Clouds
4:42 PM 75.2 °F - 28.4 °F 18% 30.14 in 6.0 mi NNE 6.9 mph - N/A   Scattered Clouds
5:46 PM 73.4 °F - 23.0 °F 15% 29.74 in 6.0 mi NE 9.2 mph - N/A   Scattered Clouds
6:41 PM 69.8 °F - 23.0 °F 17% 30.16 in 6.0 mi ENE 6.9 mph - N/A   Partly Cloudy
6:43 PM 69.8 °F - 23.0 °F 17% 30.16 in 6.0 mi ENE 5.8 mph - N/A   Partly Cloudy
7:42 PM 68.0 °F - 42.8 °F 40% 30.19 in 6.0 mi East 8.1 mph - N/A   Clear
8:16 PM 64.4 °F - 42.8 °F 45% 30.21 in 6.0 mi ENE 6.9 mph - N/A   Clear
8:43 PM 62.6 °F - 42.8 °F 48% 29.84 in 6.0 mi ENE 6.9 mph - N/A   Clear
9:47 PM 62.6 °F - 35.6 °F 37% 30.24 in 8.0 mi ENE 4.6 mph - N/A   Clear
10:46 PM 62.6 °F - 33.8 °F 34% 30.24 in 8.0 mi ESE 3.5 mph - N/A   Clear
11:43 PM 60.8 °F - 33.8 °F 36% 29.74 in 8.0 mi ENE 2.3 mph - N/A   Clear